Simultaneous Nadir Overpasses (SNOs) Predictions

Prediction of SNOs between GOES-16 and TERRA Satellite Orbit:

Table of predicted SNOs for the next 14.0 days since TLE Epoch: 8/7/2021
Index Date Time (GOES-16) GOES-16 Lat,Lon TERRA Lat,Lon Distance(km) Time Diff (sec)
1 08/08/2021 15:29:17 0.04, -75.25 0.05, -75.24 2.08 80
2 08/10/2021 15:14:24 0.03, -75.27 -0.60, -72.28 338.89 80
3 08/11/2021 03:38:28 -0.04, -75.25 -0.49, -77.48 253.14 80
4 08/13/2021 03:23:34 -0.04, -75.27 0.10, -74.51 85.55 80
5 08/13/2021 15:47:29 0.05, -75.30 1.00, -79.67 497.41 80
6 08/15/2021 03:11:21 -0.04, -75.30 0.75, -71.56 424.54 80
7 08/15/2021 15:35:16 0.05, -75.33 0.34, -76.72 158.30 80
8 08/17/2021 15:20:23 0.05, -75.35 -0.31, -73.77 180.98 80
9 08/18/2021 03:44:26 -0.07, -75.34 -0.83, -78.95 410.53 80
10 08/20/2021 03:32:12 -0.07, -75.37 -0.23, -75.99 70.84 80
